Regional Weather Roundup
Issued by NWS State College, PA

Home | Current Version | Previous Version | Text Only | Print | Product List | Glossary On
Versions: 1 2 3 4 5 6 7 8 9 10 11 12 13 14 15 16 17 18 19 20 21 22 23 24 25 26 27 28 29 30 31 32 33 34 35 36 37 38 39 40 41 42 43 44 45 46 47 48 49 50
000
ASUS41 KCTP 091610
RWRCTP

REGIONAL WEATHER ROUNDUP
NATIONAL WEATHER SERVICE STATE COLLEGE PA
1100 AM EST FRI DEC 09 2016

Note: "fair" indicates few or no clouds below 12,000 feet with no
significant weather and/or obstructions to visibility.

* = STATION THAT DOES NOT REPORT PRECIPITATION /E.G. RAIN...SNOW...ETC/
    THUNDER OR FOG.

PAZ002>004-007>009-013>016-020>023-029>032-091700-
WESTERN PENNSYLVANIA

CITY           SKY/WX    TMP DP  RH WIND       PRES   REMARKS
ERIE           PTSUNNY   33  19  56 W14G24    30.29R
MEADVILLE      CLOUDY    23  19  85 SW12      30.28S WCI  12
FRANKLIN*        N/A     23  18  80 W12G18    30.30R WCI  12
NEW CASTLE     CLOUDY    25  19  78 W15       30.36R WCI  13
BEAVER COUNTY  NOT AVBL
BUTLER*        CLOUDY    25  18  74 W12G20    30.36R WCI  14
PITTSBURGH INT CLOUDY    25  18  74 W13       30.36R WCI  14
PITTSBURGH     CLOUDY    24  15  68 W15G23    30.35R WCI  11
INDIANA*       CLOUDY    25  19  80 W13G20    30.32S WCI  13
LATROBE        FLURRIES  25  18  74 W17       30.35S WCI  11
WASHINGTON CO* CLOUDY    25  16  68 W14       30.38S WCI  13
$$

PAZ004>006-010>012-017>019-024>028-033>037-041-042-045-046-049>053-091700-
CENTRAL PENNSYLVANIA

CITY           SKY/WX    TMP DP  RH WIND       PRES   REMARKS
BRADFORD       SNOW      24  20  84 W12       30.15S VSB 1/2 WCI  13
DUBOIS         LGT SNOW  24  18  77 W15       30.21R WCI  11
CLEARFIELD     CLOUDY    27  19  72 W13       30.23R
JOHNSTOWN      LGT SNOW  19  16  88 W15G25    30.22R FOG     WCI   5
ALTOONA        CLOUDY    27  18  69 W12       30.27S
STATE COLLEGE  PTSUNNY   28  18  64 W12G23    30.23S
WILLIAMSPORT   CLOUDY    33  19  56 W16G25    30.20S
SELINSGROVE    CLOUDY    33  20  58 W10G20    30.24S
FT INDIANTOWN  PTSUNNY   33  17  51 W13G31    30.23S
CAPITAL CITY   MOSUNNY   35  16  45 W17G30    30.26S
HARRISBURG     MOSUNNY   34  19  54 NW21G29   30.26R
YORK           MOSUNNY   33  18  53 W18G25    30.27R
$$

PAZ038>040-043-044-047-048-054-055-060>062-067>071-091700-
EASTERN PENNSYLVANIA

CITY           SKY/WX    TMP DP  RH WIND       PRES   REMARKS
SCRANTON       CLOUDY    32  17  54 W17G26    30.14S
MOUNT POCONO   CLOUDY    27  17  66 W22G31    30.05F WCI  13
ALLENTOWN      PTSUNNY   35  18  49 W17G29    30.17S
QUAKERTOWN*    SUNNY     34  18  51 W12G20    30.18R
READING        PTSUNNY   36  18  48 W20G31    30.21R
LANCASTER      PTSUNNY   34  19  54 NW23G33   30.23R
COATESVILLE    MOSUNNY   34  18  51 NW16G26   30.22S
POTTSTOWN      MOSUNNY   34  18  52 NW18G25   30.21R
BLUE BELL      PTSUNNY   32  19  59 W10G21    30.19S
DOYLESTOWN     MOSUNNY   37  19  48 W18G26    30.16S
WILLOW GROVE   NOT AVBL
NORTH PHILA    PTSUNNY   38  20  48 NW12      30.22S
PHILADELPHIA   PTSUNNY   36  17  46 W20G26    30.24R
$$




USA.gov is the U.S. government's official web portal to all federal, state and local government web resources and services.